Regional Weather Roundup
Issued by NWS

Home | Current Version | Previous Version | Graphics & Text | Print | Product List | Glossary On
Versions: 1 2 3 4 5 6 7 8 9 10 11 12 13 14 15 16 17 18 19 20 21 22 23 24 25 26 27 28 29 30 31 32 33 34 35 36 37 38 39 40 41 42 43 44 45 46 47 48 49 50
000
ASUS43 KDMX 210107
RWRIA

WEATHER ROUNDUP FOR IOWA
NATIONAL WEATHER SERVICE DES MOINES IA
700 PM CST SAT DEC 20 2014

NOTE: "FAIR" INDICATES FEW OR NO CLOUDS BELOW 12,000 FEET WITH NO
SIGNIFICANT WEATHER AND/OR OBSTRUCTIONS TO VISIBILITY.

* - THESE STATIONS ARE NOT NWS STATIONS...THUS NOT UNDER NWS
QUALITY CONTROL.  THEY ALSO DO NOT REPORT WEATHER SUCH
AS PRECIPITATION OR FOG.

IAZ001>003-012>014-020>022-031>034-043>046-210200-
   NORTHWEST IOWA

CITY           SKY/WX    TMP DP  RH WIND       PRES   REMARKS
CARROLL *      CLOUDY    34  32  93 S8        30.09S WCI  27
CHEROKEE *     CLOUDY    32  32 100 S9        30.06F WCI  24
DENISON *      CLOUDY    32  32 100 S13       30.06F FOG     WCI  22
LE MARS *      CLOUDY    32  30  93 S10       30.05S FOG     WCI  24
ORANGE CITY *  CLOUDY    32  30  93 S8        30.03F FOG     WCI  25
SHELDON *      CLOUDY    30  32 100 S14       30.03S FOG     WCI  20
SIOUX CITY     CLOUDY    33  30  88 S12       30.06S FOG     WCI  24
SPENCER        CLOUDY    32  28  85 S13       30.06F WCI  22
STORM LAKE *   CLOUDY    32  32 100 S13       30.07S FOG     WCI  22
$$

IAZ055>058-069>071-079>083-090>094-210200-
   SOUTHWEST IOWA

CITY           SKY/WX    TMP DP  RH WIND       PRES   REMARKS
ATLANTIC *     CLOUDY    32  32 100 S10       30.10S FOG     WCI  24
AUDUBON *      CLOUDY    34  28  80 S9        30.10S HAZE    WCI  26
CLARINDA *     CLOUDY    36  34  93 CALM      30.12S
COUNCIL BLFS * CLOUDY    34  34 100 S7        30.07F FOG     WCI  28
CRESTON *      CLOUDY    34  34 100 SE5       30.11S FOG     WCI  30
HARLAN  *      CLOUDY    32  32 100 S8        30.13R FOG     WCI  25
LAMONI         FOG       35  34  96 SE8       30.12S VSB 3/4 WCI  29
RED OAK *      CLOUDY    34  32  93 S7        30.11S WCI  28
SHENANDOAH *   CLOUDY    34  34 100 CALM      30.11S FOG
$$

IAZ047>049-059>061-072>074-084-210200-
   CENTRAL IOWA

CITY           SKY/WX    TMP DP  RH WIND       PRES   REMARKS
AMES           FOG       33  32  96 SE6       30.13S VSB 3/4 WCI  28
ANKENY *       CLOUDY    34  34 100 S7        30.14S FOG     WCI  28
CHARITON *     CLOUDY    36  36 100 S7        30.14S FOG     WCI  30
DES MOINES     CLOUDY    36  33  89 S6        30.14S WCI  31
GRINNELL*      FOG       34  32  93 SE7       30.15S VSB 1/2 WCI  28
KNOXVILLE *    CLOUDY    36  34  93 SE5       30.14R FOG     WCI  32
MARSHALLTOWN   FOG       33  32  96 SE9       30.14R VSB 1/2 WCI  25
PELLA *        CLOUDY    34  34 100 SE3       30.17R FOG
PERRY *        CLOUDY    34  34 100 S7        30.11S FOG     WCI  28
$$

IAZ004>006-015-016-023>025-035-036-210200-
   NORTH CENTRAL IOWA

CITY           SKY/WX    TMP DP  RH WIND       PRES   REMARKS
ALGONA *       CLOUDY    32  32 100 S10       30.10S FOG     WCI  24
CLARION *      FOG       32  32 100 SE9       30.11F VSB 3/4 WCI  24
ESTHERVILLE    CLOUDY    31  29  92 S14       30.06F WCI  21
FORT DODGE *   CLOUDY    32  28  86 SE5       30.11F WCI  27
MASON CITY     CLOUDY    30  28  92 SE9       30.13S WCI  22
FOREST CITY *  CLOUDY    32  30  93 SE10      30.11S FOG     WCI  24
IOWA FALLS *   CLOUDY    32  32 100 SE7       30.14S FOG     WCI  26
$$

IAZ007>011-017>019-026>030-037>042-050>054-066-210200-
   NORTHEAST IOWA

CITY           SKY/WX    TMP DP  RH WIND       PRES   REMARKS
CEDAR RAPIDS   CLOUDY    32  32 100 SE9       30.17F FOG     WCI  24
CHARLES CITY * CLOUDY    30  32 100 SE7       30.15R WCI  23
CLINTON *      CLOUDY    32  27  80 SE9       30.24S WCI  24
DECORAH *      CLOUDY    30  30 100 VRB6      30.16R FOG     WCI  24
DUBUQUE        CLOUDY    30  27  88 SE13      30.19S FOG     WCI  20
MONTICELLO *   CLOUDY    32  32 100 SE7       30.19F FOG     WCI  26
OELWEIN *      CLOUDY    32  32 100 S10       30.17R FOG     WCI  24
WATERLOO       CLOUDY    32  31  96 SE12      30.16S FOG     WCI  23
$$

IAZ064-065-067-068-078-210200-
   EAST CENTRAL IOWA

CITY           SKY/WX    TMP DP  RH WIND       PRES   REMARKS
DAVENPORT      CLOUDY    33  28  81 SE8       30.22S WCI  26
IOWA CITY      CLOUDY    32  32 100 SE7       30.21S FOG     WCI  26
MT. PLEASANT * CLOUDY    34  34 100 SE7       30.20S FOG     WCI  28
MUSCATINE *    CLOUDY    34  32  93 SE3       30.22S FOG
QUAD CITIES    CLOUDY    34  28  79 SE6       30.22R WCI  29
$$

IAZ062-063-075>077-085>089-095>099-210200-
   SOUTHEAST IOWA

CITY           SKY/WX    TMP DP  RH WIND       PRES   REMARKS
BURLINGTON     CLOUDY    36  34  92 S8        30.20S FOG     WCI  30
FAIRFIELD *    CLOUDY    34  34 100 SE7       30.18S FOG     WCI  28
FORT MADISON * CLOUDY    37  36  93 S5        30.21R FOG     WCI  34
KEOKUK *       CLOUDY    37  36  93 SE6       30.19S FOG     WCI  33
OSKALOOSA *    FOG       34  32  93 SE7       30.17S VSB 3/4 WCI  28
CENTERVILLE *  CLOUDY    36  36 100 SE8       30.16S WCI  29
OTTUMWA        CLOUDY    35  34  96 SE6       30.16S FOG     WCI  30
WASHINGTON *   CLOUDY    34  34 100 SE9       30.19S FOG     WCI  26
$$

ABBREVIATIONS USED IN REMARKS
   TC - TEMPERATURES IN CELSIUS
  WCI - WIND CHILL INDEX
   HX - HEAT INDEX
  VSB - VISIBILITY
$$



USA.gov is the U.S. government's official web portal to all federal, state and local government web resources and services.